Regional Weather Roundup
Issued by NWS

Home | Current Version | Previous Version | Graphics & Text | Print | Product List | Glossary On
Versions: 1 2 3 4 5 6 7 8 9 10 11 12 13 14 15 16 17 18 19 20 21 22 23 24 25 26 27 28 29 30 31 32 33 34 35 36 37 38 39 40 41 42 43 44 45 46 47 48 49 50
000
ASUS43 KBIS 230920
RWRND

NORTH DAKOTA REGIONAL WEATHER ROUNDUP
NATIONAL WEATHER SERVICE BISMARCK ND
400 AM CDT SAT AUG 23 2014

NOTE: "FAIR" INDICATES FEW OR NO CLOUDS BELOW 12,000 FEET WITH NO
SIGNIFICANT WEATHER AND/OR OBSTRUCTIONS TO VISIBILITY.


NDZ001>003-009>011-017-231000-
NORTHWEST NORTH DAKOTA

CITY           SKY/WX    TMP DP  RH WIND       PRES   REMARKS
WILLISTON      CLOUDY    60  55  83 NE13      30.10S
MINOT          CLOUDY    58  54  86 N10       30.12F
MINOT AFB      CLOUDY    59  58  97 NE10      30.13S
$$

NDZ018>021-031>035-040>046-231000-
SOUTHWEST NORTH DAKOTA

CITY           SKY/WX    TMP DP  RH WIND       PRES   REMARKS
BISMARCK       CLOUDY    63  60  90 NE17      30.05F
DICKINSON      CLOUDY    62  60  93 E18G26    30.01F FOG
GARRISON         N/A     59  57  93 E12       30.08F
HETTINGER ARPT CLOUDY    65  62  90 E17       30.00F
$$

NDZ004>008-012>016-024-026-027-054-231000-
NORTHEAST NORTH DAKOTA

CITY           SKY/WX    TMP DP  RH WIND       PRES   REMARKS
GRAND FORKS    CLOUDY    63  61  93 N13       30.06S
GRND FRKS AFB  CLOUDY    61  61 100 N12       30.08S
DEVILS LAKE    CLOUDY    59  52  77 NE14      30.08F
$$

NDZ022-023-025-028>030-036>039-047>053-231000-
SOUTHEAST NORTH DAKOTA

CITY           SKY/WX    TMP DP  RH WIND       PRES   REMARKS
FARGO          CLOUDY    65  63  93 N9        30.02F FOG
JAMESTOWN      CLOUDY    62  58  86 NE10      30.06R
$$



USA.gov is the U.S. government's official web portal to all federal, state and local government web resources and services.